GEFSMA_500_meanwind_198.txt.gz
Wind_Speed
3 2 2 2 2 1 1 1 1 1 1 1 1 1 2 2 1 1 1 1 1 1 1 2 1 1 2 2 2 1 1 2 1 1 1 1 0 0 0 1 1 1 1
3 3 2 2 1 1 1 2 1 1 0 1 1 1 1 2 1 1 1 1 1 1 1 1 1 1 2 3 2 2 2 2 2 2 1 1 1 0 0 1 1 1 1
3 3 3 2 1 1 1 2 2 2 1 1 1 1 1 1 1 1 1 1 1 1 1 1 1 1 2 3 3 2 2 2 1 1 1 1 0 0 0 1 1 1 2
4 4 4 3 2 2 1 1 2 2 2 2 1 1 1 1 1 2 1 1 1 1 1 1 1 1 2 2 2 2 2 2 2 2 1 1 1 1 1 1 1 2 2
5 5 5 4 3 3 2 2 2 3 3 2 2 2 1 1 2 2 2 2 1 1 1 1 1 1 1 1 2 2 2 2 2 1 2 1 1 1 1 2 2 3 3
6 6 5 5 5 4 3 3 2 3 3 3 3 3 3 3 2 2 2 2 1 1 2 2 2 2 1 1 1 1 1 1 1 1 2 2 2 2 2 2 2 3 3
6 6 7 6 6 5 4 4 3 3 3 3 3 4 4 4 3 3 2 2 2 3 3 2 2 2 2 2 2 2 2 2 2 2 2 2 2 3 3 3 3 2 3
7 7 7 7 7 6 5 5 5 4 4 4 4 4 4 4 4 4 4 4 4 4 4 4 4 4 3 3 3 3 3 3 3 3 3 3 3 3 4 4 4 3 3
7 8 8 8 8 7 7 6 6 5 5 5 5 5 5 5 6 5 5 5 5 5 5 5 5 5 4 4 4 4 4 4 4 4 4 4 4 5 5 5 5 5 5
8 9 9 9 9 9 8 8 7 6 6 6 6 6 6 6 6 7 7 6 6 6 6 6 6 6 6 6 6 5 5 5 5 5 5 5 6 6 6 6 6 7 7
9 10 10 10 10 10 9 9 8 8 7 7 7 7 7 7 8 8 8 7 7 7 7 7 7 7 7 7 7 7 7 7 7 7 7 7 7 7 7 7 8 8 8
9 10 10 10 10 10 10 9 10 9 9 8 8 8 8 8 9 9 9 9 9 8 8 9 9 9 9 9 8 8 8 8 8 8 8 8 8 8 9 9 9 10 11
9 10 10 10 10 11 11 11 11 11 10 10 9 10 10 10 10 10 11 10 10 10 10 10 10 10 10 10 10 10 10 9 9 10 10 10 11 11 11 11 12 13 13
10 10 10 10 11 11 12 12 12 11 12 11 11 11 11 11 11 11 12 12 12 12 12 12 12 12 11 11 12 12 11 11 11 12 12 12 12 13 13 13 14 14 14
11 11 11 11 11 11 12 13 13 14 14 13 13 13 13 13 13 13 13 13 13 14 14 14 13 13 13 13 13 13 13 13 13 13 13 13 13 14 14 15 15 15 16
11 12 13 13 13 13 14 14 14 15 15 14 14 14 14 14 14 14 14 14 15 15 15 15 15 15 15 15 15 15 15 15 15 15 15 15 15 15 15 16 17 17 18
10 12 13 14 14 14 14 15 15 15 15 15 16 15 15 16 16 16 16 16 16 16 16 16 17 17 17 17 17 17 17 17 17 17 17 17 17 17 18 18 19 20 21
11 11 12 13 14 15 15 15 15 15 16 16 17 16 16 17 17 18 18 17 17 17 17 17 18 18 19 19 19 19 20 19 19 19 20 20 20 20 21 21 22 22 23
12 12 12 12 13 14 15 16 16 16 16 16 17 17 17 17 18 18 18 18 18 18 19 19 19 19 20 20 21 21 21 21 21 21 22 22 22 22 23 23 24 24 25
12 13 13 13 13 14 14 15 16 17 17 17 17 17 18 17 18 18 18 19 19 19 19 20 20 20 21 22 22 22 23 22 22 23 24 24 25 25 25 26 26 27 27
13 13 14 14 14 15 15 16 16 17 17 17 18 19 20 19 19 19 19 20 20 20 20 20 21 21 21 22 23 24 25 24 24 25 26 26 27 27 27 28 28 29 30
14 15 15 16 16 16 16 17 18 18 18 18 19 19 20 20 20 21 21 21 22 22 22 22 22 23 22 23 24 25 25 26 26 27 28 28 28 29 30 30 30 31 31
16 16 17 17 17 17 18 19 19 19 19 19 19 20 21 21 21 22 23 23 23 24 24 24 24 24 24 25 26 26 26 27 28 28 29 30 30 31 32 32 32 33 34
17 17 18 18 18 17 18 18 18 18 19 19 20 21 21 21 23 23 23 23 22 23 24 25 25 25 25 26 27 27 28 29 30 31 32 32 33 34 36 36 35 36 37
17 17 18 18 17 17 17 18 18 19 19 20 20 21 21 22 23 23 23 23 24 24 24 24 24 24 25 27 28 29 30 31 31 32 34 34 35 36 37 37 38 39 40
18 18 18 18 18 17 18 18 19 20 20 21 22 22 22 22 23 23 23 23 23 24 24 25 26 26 27 28 29 30 31 32 33 34 34 35 36 37 38 38 40 41 42

GEFSMA_500_meanwind_204.txt.gz
Wind_Speed
2 2 2 2 2 1 1 2 2 2 3 2 3 3 4 4 4 3 3 3 2 3 3 3 3 3 3 3 3 2 2 2 3 2 3 3 3 2 2 2 2 2 2
4 3 3 3 3 2 2 2 2 2 2 2 3 3 3 3 3 3 3 2 2 2 2 3 3 3 4 4 3 3 3 3 3 3 3 3 2 2 2 2 2 2 2
4 3 3 4 4 3 2 2 2 2 3 3 3 3 3 3 3 3 3 3 2 2 2 2 3 3 3 3 3 3 3 2 2 3 2 2 1 1 1 1 1 1 1
5 4 4 4 4 3 2 2 2 2 2 2 2 3 3 3 4 3 3 3 2 2 2 2 2 2 2 3 3 3 2 2 2 2 1 1 1 0 1 1 0 0 1
6 4 4 4 4 4 3 3 3 2 2 2 2 3 3 3 4 4 3 3 2 1 1 2 2 2 2 2 2 2 2 2 2 1 1 1 1 0 0 1 1 1 1
6 5 5 4 4 4 4 3 3 3 2 2 3 3 4 4 4 4 4 3 3 2 2 2 2 2 2 2 2 2 1 1 1 2 2 1 1 1 1 2 2 3 3
7 6 5 5 5 5 4 4 3 3 3 3 3 4 4 4 4 4 4 3 3 3 2 3 3 2 3 3 2 2 2 2 2 1 1 1 1 1 2 2 3 3 3
7 6 6 6 6 5 5 4 4 4 4 4 4 4 4 5 5 5 4 4 4 4 3 4 4 4 4 4 4 3 3 3 2 2 2 2 2 2 2 2 3 3 3
7 7 6 6 6 6 6 5 5 4 5 5 5 5 5 5 6 5 5 5 5 5 5 5 5 6 6 5 4 5 4 3 4 4 4 4 4 4 4 4 4 4 4
7 7 6 6 6 7 7 6 6 6 5 6 6 5 6 6 6 6 6 6 6 7 6 6 6 6 6 6 6 6 6 5 5 6 6 6 6 6 6 6 6 6 6
8 7 7 7 7 7 7 6 6 6 7 7 7 6 7 7 7 7 8 8 8 8 8 8 8 8 8 7 7 7 7 7 7 7 7 8 8 8 8 8 8 9 9
8 7 7 7 7 7 7 7 6 7 8 8 8 8 8 8 8 9 9 10 10 10 10 10 9 9 9 9 9 9 9 9 9 9 9 9 10 10 10 10 10 11 11
8 8 7 7 7 7 7 7 7 8 9 9 10 10 10 10 10 10 10 10 11 11 11 11 10 11 11 11 11 10 10 11 11 11 11 11 11 11 11 11 12 12 13
8 8 7 7 7 8 8 8 8 9 10 11 11 11 11 11 12 12 12 12 12 12 12 12 12 12 13 13 13 13 13 13 13 13 13 13 13 13 13 13 13 14 14
7 7 8 8 8 8 9 9 10 10 11 12 13 13 13 13 13 14 14 14 14 14 14 14 13 14 13 14 15 15 15 15 15 15 15 15 15 15 15 15 15 15 16
8 7 8 8 9 10 10 10 11 12 12 13 13 13 14 14 15 15 16 16 16 15 15 15 15 14 15 15 16 16 16 16 16 15 16 16 17 17 17 17 17 18 18
9 8 9 9 9 10 11 11 11 11 12 13 13 14 14 15 15 16 16 16 17 17 16 16 16 16 17 17 17 17 17 18 18 17 18 18 19 19 19 20 20 20 21
9 9 9 10 10 10 11 12 12 12 12 12 13 13 14 15 16 16 16 17 17 18 18 17 17 17 18 18 18 18 18 19 19 20 20 20 20 21 21 21 22 23 23
10 10 10 11 11 11 11 12 13 14 14 14 14 15 15 16 17 17 17 18 18 18 19 19 18 18 18 18 19 20 21 21 21 21 22 22 22 23 23 24 24 25 26
11 11 11 12 12 12 12 13 13 13 14 15 15 15 17 18 18 18 19 19 18 19 19 19 19 19 20 20 21 22 22 22 23 23 23 24 24 25 25 26 26 26 27
13 12 12 12 13 13 13 13 13 14 15 16 17 17 18 18 18 19 20 20 20 20 20 20 20 20 21 23 23 23 23 24 23 24 24 24 25 26 26 27 27 28 29
13 13 13 14 14 14 14 15 15 16 16 17 18 18 19 20 20 20 20 21 21 21 21 22 22 22 23 24 24 24 24 24 24 24 25 25 26 26 27 28 29 30 31
14 14 14 15 15 16 16 16 16 17 17 18 19 19 20 20 20 20 21 21 22 22 22 22 23 24 24 24 24 24 24 25 25 25 27 27 28 29 30 31 31 32 33
15 15 15 15 16 17 18 18 18 18 18 19 19 20 20 21 20 21 21 21 21 21 22 22 23 23 23 24 25 26 26 26 27 27 28 29 30 31 32 33 34 35 35
16 16 16 16 17 18 18 18 18 18 18 19 20 20 20 20 20 21 21 21 21 22 23 23 23 24 25 25 26 27 28 28 29 29 30 31 32 34 35 35 36 37 37
16 16 17 17 18 18 19 18 18 19 19 20 20 21 21 21 21 21 22 21 22 23 24 24 25 26 26 27 28 28 29 30 30 30 31 32 33 34 36 37 38 39 39

GEFSMA_500_meanwind_210.txt.gz
Wind_Speed
3 3 3 3 3 3 3 3 3 3 3 3 3 3 2 3 2 3 3 2 2 2 3 3 3 3 3 2 2 2 2 2 2 2 2 2 2 3 3 4 4 4 4
3 3 3 2 2 2 3 2 2 2 2 2 2 2 2 2 2 2 2 2 2 2 2 2 3 3 3 3 2 2 2 2 3 2 2 2 2 2 3 3 4 4 4
3 3 2 2 2 2 3 2 3 2 2 2 2 2 2 2 2 2 1 1 1 1 1 2 3 3 3 3 2 1 1 2 2 2 2 2 2 2 2 3 4 4 4
3 3 2 2 2 2 2 2 2 2 2 1 1 1 1 1 1 1 1 1 0 1 0 1 2 2 1 1 1 1 1 2 2 1 2 2 2 2 3 3 3 4 4
4 2 2 2 1 1 1 1 2 1 1 1 1 1 1 1 1 1 2 1 1 1 1 1 1 1 1 1 1 1 2 2 2 2 2 3 3 3 4 4 4 4 4
4 2 1 1 1 0 1 1 1 1 1 1 1 0 1 1 2 1 2 2 2 2 2 2 2 2 2 2 2 2 3 3 3 3 3 3 4 4 4 5 5 5 5
4 2 1 1 0 1 1 0 1 1 0 0 0 1 1 2 3 3 2 2 2 2 2 2 3 4 4 3 3 4 4 4 4 4 4 4 4 4 5 6 6 6 7
4 2 2 1 1 2 2 1 2 1 1 1 1 1 1 2 3 4 4 3 3 4 4 4 4 4 4 4 5 5 4 6 6 5 5 5 5 5 5 6 7 7 8
3 2 2 1 1 2 3 2 2 2 2 2 2 2 2 3 4 4 4 4 4 5 5 6 6 6 5 5 6 6 6 6 7 7 6 7 7 7 7 7 7 7 8
3 3 2 2 2 3 3 3 3 3 3 3 3 3 4 4 4 4 4 5 5 6 6 7 7 7 7 7 8 8 8 8 8 8 8 9 8 8 8 9 9 9 9
3 3 3 2 2 3 3 3 4 4 4 4 4 5 5 5 5 5 5 5 6 7 7 7 7 8 8 9 10 10 10 10 10 10 10 11 11 11 11 11 11 11 11
3 3 4 3 3 3 3 4 4 5 5 5 5 6 6 6 6 7 7 6 7 7 8 9 9 9 10 10 11 12 12 12 12 12 12 13 13 13 13 13 13 13 13
4 4 4 5 4 4 4 5 5 6 6 6 6 7 7 8 9 8 9 9 9 9 10 10 10 10 11 12 12 13 13 14 14 14 14 14 14 14 14 15 15 15 16
4 4 5 4 4 4 5 5 6 7 8 8 8 8 8 9 9 10 10 10 11 11 12 12 12 12 12 12 13 14 15 15 15 16 16 16 16 16 16 16 17 17 18
4 4 4 5 5 5 6 7 8 9 8 8 9 9 10 10 11 11 11 11 12 12 13 14 14 14 14 14 14 14 15 16 17 17 18 18 19 18 18 19 19 19 19
4 4 5 5 6 7 7 8 8 8 8 9 10 10 11 11 13 13 13 13 13 13 14 15 16 16 15 15 15 16 16 17 18 18 19 19 20 20 20 21 20 20 20
5 5 6 6 6 7 7 7 8 9 9 10 10 11 11 11 12 12 13 13 13 14 14 14 15 16 16 16 17 17 18 19 19 19 20 21 22 23 23 23 22 22 22
6 6 6 7 7 7 7 8 8 9 10 11 12 12 12 12 13 13 13 14 14 14 14 14 15 16 17 17 17 18 18 19 20 21 22 23 24 24 25 25 26 26 26
7 7 7 7 8 8 8 9 9 10 10 11 12 12 13 14 14 14 15 15 16 16 16 16 17 18 18 18 17 18 18 19 20 21 22 23 24 25 26 27 28 28 28
9 9 9 9 9 9 10 10 10 10 11 12 13 13 13 14 15 15 16 16 16 17 17 18 18 19 19 18 19 19 20 21 22 23 24 24 24 25 27 28 29 30 30
10 10 9 10 10 11 11 11 11 11 12 13 13 14 14 14 15 15 15 16 17 17 17 17 18 18 18 19 19 20 21 21 22 23 24 25 26 27 28 29 30 31 32
12 12 12 11 11 11 12 12 13 13 13 13 14 14 14 15 15 16 16 16 17 17 18 18 18 18 19 20 21 21 22 22 23 24 24 25 27 28 29 30 31 32 33
12 12 12 12 12 12 12 13 14 13 13 13 14 14 14 15 17 17 17 18 19 19 19 19 19 19 20 21 22 23 23 24 24 24 25 26 28 28 29 31 32 33 34
13 13 13 13 13 13 14 14 14 13 13 14 14 15 15 16 17 18 18 19 19 19 20 20 20 21 22 23 23 24 24 25 26 26 27 27 28 29 30 31 32 34 35
13 13 13 14 14 14 14 14 14 14 14 15 15 16 16 17 18 18 19 19 19 20 20 21 21 22 23 23 24 24 25 25 26 27 28 29 30 31 32 33 34 34 35
14 14 14 14 14 14 14 14 14 15 15 15 16 16 17 18 18 19 19 20 20 21 22 22 23 23 24 24 25 26 27 27 28 28 29 30 32 33 34 35 36 37 37

GEFSMA_500_meanwind_216.txt.gz
Wind_Speed
3 3 4 3 3 2 2 2 2 2 2 2 2 2 2 2 3 3 2 2 2 1 1 2 1 2 1 1 1 0 1 1 1 2 2 1 1 1 1 2 2 2 2
3 3 3 3 2 2 2 2 1 1 2 1 1 1 2 2 2 2 2 2 1 1 1 1 1 2 2 2 1 0 0 0 1 1 2 1 1 1 1 2 2 3 3
3 2 2 1 1 1 1 1 1 1 1 1 1 0 1 1 1 2 2 2 1 1 1 1 1 1 1 1 1 1 0 1 1 1 1 2 2 2 2 2 3 4 4
3 2 1 1 1 0 1 1 1 1 1 0 0 0 1 1 2 2 2 2 1 1 1 1 2 1 1 1 2 1 1 1 1 1 2 2 2 3 3 3 3 4 4
3 3 1 1 0 1 1 1 1 1 1 0 0 1 1 1 1 2 2 2 2 2 2 2 2 3 2 2 3 3 3 2 2 3 3 3 4 4 4 4 4 4 5
3 2 2 1 1 1 2 2 2 1 1 1 1 1 1 1 2 3 3 3 3 3 3 3 3 3 4 4 4 4 4 4 4 4 4 5 5 5 5 6 6 6 6
3 3 2 2 2 2 3 2 2 2 1 1 1 2 2 2 3 3 4 4 4 4 4 4 4 5 5 5 5 5 6 6 6 6 6 6 7 7 7 7 7 8 8
4 3 3 3 3 2 2 3 3 3 3 3 3 3 4 3 3 4 4 4 4 4 5 5 5 5 5 5 6 7 7 7 7 7 7 8 8 8 8 8 9 9 9
5 5 4 4 4 3 3 3 3 4 4 4 4 4 4 5 5 4 4 4 5 5 5 5 6 7 7 7 8 8 8 9 8 8 9 10 10 10 10 10 10 10 11
5 5 5 4 4 4 4 3 3 4 4 4 4 4 5 6 6 7 6 6 6 6 6 6 7 8 8 9 9 10 10 10 10 11 11 11 11 12 12 12 12 12 12
5 5 5 4 4 4 4 4 4 4 5 5 5 6 6 7 8 8 8 8 8 8 8 8 8 9 10 11 11 11 12 12 12 13 13 13 12 12 13 13 13 13 13
5 4 5 5 4 4 4 5 5 5 5 6 7 7 7 8 8 8 8 9 10 10 10 10 10 11 11 12 13 13 13 13 14 14 14 15 15 15 14 14 15 15 15
5 4 4 5 5 4 5 5 6 6 7 7 8 8 8 8 9 9 9 10 10 11 12 12 13 12 13 14 14 14 14 14 14 15 15 16 16 17 16 16 16 17 17
5 5 5 6 6 5 5 6 7 7 7 8 7 8 8 8 9 9 10 11 11 12 13 14 14 14 14 15 15 15 15 15 16 16 17 17 17 18 18 18 18 19 20
5 6 6 7 7 7 7 7 8 8 8 9 9 9 9 9 10 11 11 12 12 13 14 15 15 15 15 16 16 15 15 16 17 17 17 18 19 19 20 20 21 21 22
6 6 7 7 8 8 8 9 9 8 9 9 9 10 11 12 12 12 13 13 13 13 13 15 15 15 15 16 16 16 16 16 17 18 18 19 20 21 22 23 23 23 24
8 8 8 8 8 9 9 9 9 9 9 9 10 11 12 13 13 13 13 13 13 13 14 14 15 15 15 16 17 17 18 18 19 19 19 20 21 23 23 24 25 26 26
9 9 9 9 9 10 9 10 10 10 10 11 11 12 12 13 13 13 14 14 14 15 15 15 16 16 16 17 17 17 17 18 19 19 19 20 21 22 23 24 25 26 27
10 10 10 9 10 10 11 10 10 11 11 11 12 12 13 13 13 13 14 14 15 16 16 16 17 18 18 17 18 18 19 20 21 21 21 21 22 23 24 25 26 27 28
11 11 11 11 11 12 11 11 11 11 12 13 13 13 13 13 13 13 14 15 16 17 18 18 19 19 19 19 19 20 21 21 23 23 23 23 24 25 25 26 27 27 29
13 12 12 12 12 12 13 13 13 13 13 14 13 13 13 14 14 14 15 17 17 18 19 19 19 19 20 20 21 21 21 22 23 23 24 24 25 26 27 28 28 29 31
15 14 14 13 13 13 14 14 14 14 14 14 13 14 14 14 15 16 17 17 18 19 19 19 20 20 21 21 21 22 22 23 24 25 25 26 27 27 28 29 30 31 32
16 16 15 15 15 15 15 15 14 14 15 15 15 15 16 16 16 17 17 18 19 20 20 20 21 21 21 21 22 23 24 24 25 26 27 28 29 29 30 30 31 32 34
18 17 16 16 16 16 16 15 15 15 16 16 16 16 16 17 17 18 18 18 19 19 20 20 21 21 22 23 23 24 25 26 27 27 28 29 29 30 32 32 33 34 34
17 17 16 16 16 16 16 15 15 15 15 16 17 17 17 17 18 18 19 19 20 20 21 21 22 23 24 24 25 26 27 27 28 29 30 31 31 32 33 34 35 35 36
17 17 17 17 17 17 17 16 15 16 16 17 17 17 18 19 19 20 20 20 21 22 23 23 24 25 25 26 27 28 29 29 30 31 32 33 33 34 34 35 36 37 37

GEFSMA_500_meanwind_222.txt.gz
Wind_Speed
3 3 3 3 2 2 2 2 2 2 2 2 2 2 2 2 2 1 1 1 1 1 1 1 2 2 1 1 0 0 1 2 2 2 2 3 3 2 2 2 3 3 3
2 2 2 1 2 2 1 1 2 2 1 1 1 1 1 1 1 0 1 1 1 1 1 1 1 0 0 1 0 0 1 2 2 2 3 3 3 3 3 3 3 4 4
2 1 1 1 1 0 0 1 1 1 1 0 1 1 1 0 0 1 1 1 0 0 0 1 1 1 0 0 1 0 1 1 2 2 3 3 3 3 4 4 4 4 5
2 2 1 1 1 1 1 1 1 1 1 1 1 1 1 1 1 2 1 1 1 1 2 2 2 2 2 2 2 1 1 1 2 3 3 3 4 4 4 5 5 5 5
4 2 1 1 2 2 1 1 1 1 1 1 1 1 2 2 2 2 2 2 2 2 2 3 4 4 4 4 4 2 2 3 3 3 3 4 4 5 6 6 6 6 6
3 3 2 1 1 2 2 1 1 1 1 1 1 1 2 2 2 2 2 3 2 3 3 4 5 5 5 5 4 4 4 4 4 4 4 5 6 6 6 7 8 8 8
4 3 2 1 1 1 1 1 1 1 2 2 2 2 2 2 2 3 3 3 3 4 5 5 5 5 4 5 5 5 6 5 5 5 6 6 7 7 8 8 9 9 9
4 3 2 2 1 2 2 1 1 2 3 3 3 3 3 3 3 4 4 4 5 5 6 6 5 5 5 5 6 6 7 7 6 7 8 8 8 8 9 9 10 10 11
4 3 3 2 1 1 1 2 2 2 2 3 4 4 4 4 4 4 5 5 5 6 6 6 6 6 6 6 7 8 8 8 8 9 10 10 10 10 10 11 11 11 11
5 4 3 3 2 2 2 2 3 3 4 4 4 5 5 4 5 5 6 6 6 6 6 7 7 8 8 8 9 9 9 10 10 11 11 11 12 12 12 12 12 12 13
5 5 4 4 4 3 3 3 4 4 4 5 5 5 5 5 5 6 6 7 8 7 7 7 8 8 9 10 11 11 11 11 12 12 13 13 13 13 14 14 14 14 15
5 6 5 5 4 3 3 4 4 5 5 5 5 5 6 6 6 7 7 8 8 9 9 8 8 8 9 10 11 11 12 12 13 13 14 14 15 15 15 16 16 16 16
6 6 6 6 5 4 4 5 5 6 6 6 6 6 6 6 7 7 7 8 9 10 10 10 11 10 11 11 12 12 12 13 14 14 14 15 15 16 16 17 18 18 18
6 6 6 6 5 5 6 6 6 7 7 7 7 7 7 8 8 8 9 9 10 11 11 12 12 12 12 13 14 14 14 14 15 15 15 15 15 16 17 18 19 19 20
6 6 6 7 6 6 7 7 8 7 8 8 8 8 9 9 9 9 10 10 10 11 12 13 13 14 14 15 15 14 14 15 16 16 16 17 17 17 18 18 19 20 20
6 6 7 7 7 7 8 8 9 9 8 8 8 8 9 10 10 10 11 11 12 13 13 14 14 14 15 15 15 15 15 15 16 16 17 18 18 18 19 19 19 20 22
7 7 8 8 7 8 8 8 9 9 9 9 10 10 10 11 11 11 11 11 12 13 14 14 15 15 16 16 16 16 16 17 17 17 17 18 19 20 20 21 21 21 22
8 8 9 9 9 9 9 9 10 9 9 10 11 11 11 11 11 11 12 13 13 14 15 16 17 17 17 17 18 18 18 17 18 18 19 20 21 22 22 22 22 24 25
9 10 10 10 10 10 10 10 10 10 10 10 11 11 12 12 12 12 13 14 14 15 16 17 18 18 18 18 18 19 18 19 20 20 21 22 22 23 24 24 25 26 26
11 11 11 12 12 11 11 11 11 11 11 11 11 12 12 12 12 13 13 14 15 16 17 18 17 18 18 19 19 20 21 21 22 22 23 23 24 24 24 25 27 28 28
12 12 12 13 12 12 12 12 12 12 12 12 13 13 13 13 13 14 15 15 16 17 17 18 19 19 20 20 20 21 22 23 24 24 25 25 26 26 27 27 28 29 30
13 13 13 13 13 13 13 14 14 14 14 14 14 14 14 14 15 15 15 16 17 18 18 19 19 19 20 21 22 23 24 24 24 25 26 27 27 28 29 30 30 31 31
15 14 15 15 15 15 16 16 15 16 16 16 16 16 16 16 16 16 17 17 18 18 19 19 19 20 21 22 23 24 24 25 26 27 28 29 30 30 30 30 31 32 33
16 16 16 16 16 16 17 16 16 17 17 18 18 18 19 19 18 19 19 19 19 20 21 21 21 21 22 23 24 25 26 27 28 28 29 29 30 31 31 31 32 33 35
16 17 17 17 17 18 17 17 17 17 17 18 18 19 20 20 20 21 21 21 21 22 22 22 23 24 24 26 27 27 28 28 29 29 29 30 31 32 33 34 35 36 37
17 17 17 17 18 18 17 17 17 18 18 19 20 20 20 21 21 22 22 22 22 23 24 24 25 26 27 28 29 29 29 29 30 30 30 32 33 33 34 35 36 36 38

GEFSMA_500_meanwind_228.txt.gz
Wind_Speed
5 5 4 4 3 2 3 3 2 2 1 1 1 1 2 2 3 2 2 3 3 2 2 1 1 1 1 1 0 1 2 3 3 3 3 3 3 3 3 3 3 3 3
5 4 4 4 3 2 2 2 2 1 0 0 0 1 1 2 2 2 2 3 3 3 2 2 1 1 0 0 0 1 1 3 3 3 3 3 3 3 3 3 3 3 4
5 5 4 4 3 2 2 1 2 1 1 1 1 1 1 2 2 3 2 2 3 2 2 2 2 2 1 1 1 1 2 2 2 2 3 3 4 4 4 4 4 4 4
5 5 4 4 3 2 2 2 2 2 2 1 1 1 1 2 3 3 3 2 2 2 3 2 2 2 2 3 2 2 2 1 2 2 3 3 4 5 5 5 5 5 5
5 5 5 5 4 3 3 2 2 1 1 1 1 1 2 3 3 3 2 3 3 3 4 3 3 3 3 4 4 4 3 2 2 3 3 3 4 5 6 7 7 7 7
6 5 5 5 4 3 3 3 2 1 1 1 2 2 2 2 3 3 3 3 3 4 4 4 4 4 4 4 5 5 4 4 3 4 4 5 5 6 6 7 8 8 9
6 5 5 5 4 4 4 3 3 2 2 2 1 2 3 3 3 3 3 3 3 4 4 4 5 5 5 5 5 5 4 5 5 5 5 6 7 7 7 8 9 9 10
6 5 5 5 5 5 5 4 3 2 2 2 2 2 3 3 4 4 4 4 4 4 4 5 5 5 5 5 5 5 5 6 6 6 7 7 8 9 9 10 10 10 11
7 6 6 6 6 5 4 4 3 3 2 3 3 4 4 4 4 4 5 4 4 4 5 6 6 6 5 5 5 6 6 7 7 8 9 9 10 11 11 11 11 12 12
8 7 7 6 6 5 5 5 4 4 3 3 4 5 5 4 4 4 4 5 5 5 5 6 6 6 6 6 7 7 7 8 8 9 10 11 11 12 12 12 13 13 13
8 7 7 6 6 5 5 5 4 4 4 5 5 6 6 5 6 5 6 6 6 6 6 7 7 7 8 8 8 9 9 9 10 10 11 12 12 12 13 13 14 14 15
8 8 8 7 7 6 6 6 5 5 5 6 6 7 7 6 6 6 6 7 7 7 7 7 8 8 9 9 9 9 10 10 11 11 12 12 13 13 14 15 15 16 17
8 8 7 7 7 7 6 6 6 5 6 6 6 7 7 7 7 7 7 7 8 8 8 8 9 10 10 10 9 11 11 11 11 12 12 13 13 14 15 15 16 16 17
8 8 8 8 8 8 7 7 6 7 7 7 7 7 7 8 8 8 8 8 8 8 9 9 10 11 11 10 11 11 12 12 12 13 13 14 14 14 15 16 17 17 18
10 10 9 8 8 8 7 7 7 7 7 8 8 8 8 8 9 9 10 10 10 10 10 11 11 11 11 12 12 12 12 13 13 14 15 15 15 16 16 17 17 18 18
11 11 10 10 9 8 8 7 7 8 8 9 9 9 9 9 10 11 11 11 10 11 11 12 13 13 13 13 13 13 13 14 15 15 16 16 16 17 17 18 18 19 19
11 11 11 10 9 9 8 8 8 8 9 9 10 10 10 10 11 10 10 10 11 11 12 13 14 14 15 16 16 16 15 16 16 17 17 18 18 19 19 20 21 21 21
11 12 11 11 10 9 9 9 9 9 10 10 10 10 10 10 10 10 10 11 12 12 13 14 15 16 16 17 17 17 17 17 18 18 19 20 21 21 21 21 22 23 23
13 12 11 11 11 10 10 10 10 9 10 10 10 10 10 11 11 11 12 12 13 14 15 15 16 16 17 17 18 18 17 18 19 20 20 21 22 22 23 23 24 24 25
13 12 12 12 12 12 11 11 11 11 11 11 12 12 12 12 12 13 13 14 15 16 17 17 16 17 17 18 18 18 19 19 20 21 21 22 23 23 24 25 25 26 26
13 14 13 13 13 13 13 13 13 13 13 13 14 14 14 14 14 15 16 16 17 17 17 17 17 18 18 19 19 19 20 20 21 21 22 23 24 24 25 26 27 28 28
15 15 15 15 14 14 14 15 15 15 15 15 16 16 16 16 16 16 17 17 17 18 18 19 19 19 20 20 21 21 21 22 22 23 24 25 25 25 26 26 28 29 30
17 16 16 16 16 16 16 16 16 17 17 17 17 17 16 17 17 18 18 19 19 20 20 21 21 22 22 22 23 23 24 24 25 25 26 26 27 27 28 29 30 30 31
18 18 17 17 17 16 16 16 16 17 16 17 16 17 18 18 18 19 19 20 21 22 22 22 23 23 24 25 25 25 26 26 27 27 27 28 29 29 30 31 32 32 33
19 19 19 19 18 18 17 17 17 16 16 16 17 18 18 19 19 20 21 21 22 22 23 23 24 24 25 26 27 27 27 27 28 29 29 29 30 31 32 33 33 34 34
20 20 20 19 19 18 17 17 17 17 17 17 18 19 20 20 21 21 22 23 23 23 24 25 25 26 26 27 27 28 28 29 29 29 30 31 31 32 33 34 34 35 35